EA2AFZ-W Weather Reports


time (UTC)temp
F
wind
direction
speed
knots
gust
knots
rain 1hr
in
rain 24hr
in
rain mn
in
humidity
%
barometer
mb
20260506154544 59 320 9.6 9.6 0.00 0.00 0.00 81 1014.0
20260506151541 59 320 9.6 9.6 0.00 0.00 0.00 75 1014.0
20260506144539 59 320 9.6 9.6 0.00 0.00 0.00 69 1014.0
20260506141538 60 320 9.6 9.6 0.00 0.00 0.00 62 1015.0
20260506134535 58 300 13.0 13.0 0.00 0.00 0.00 61 1015.0
20260506131533 58 300 13.9 13.9 0.00 0.00 0.00 60 1015.0
20260506124531 58 310 11.3 11.3 0.00 0.00 0.00 60 1015.0
20260506121528 58 310 11.3 11.3 0.00 0.00 0.00 59 1015.0
20260506114526 58 300 11.3 11.3 0.00 0.00 0.00 61 1015.0
20260506111524 58 300 11.3 11.3 0.00 0.00 0.00 59 1014.0
20260506104522 58 300 11.3 11.3 0.00 0.00 0.00 59 1014.0
20260506101519 58 300 11.3 11.3 0.00 0.00 0.00 59 1014.0
20260506094517 59 310 10.4 10.4 0.00 0.00 0.00 59 1014.0
20260506091516 58 290 8.7 8.7 0.00 0.00 0.00 59 1014.0
20260506084513 59 24 7.0 7.0 0.00 0.00 0.00 59 1014.0
20260506081511 55 0 2.6 2.6 0.00 0.00 0.00 64 1014.0
20260506071509 53 0 1.7 1.7 0.00 0.00 0.00 88 1014.0
20260506061605 50 300 15.6 15.6 0.00 0.00 0.00 80 1014.0
20260506044558 51 300 15.6 15.6 0.00 0.00 0.00 83 1014.0
20260506041556 52 300 15.6 15.6 0.00 0.00 0.00 89 1013.0
20260506034554 52 300 15.6 15.6 0.00 0.00 0.00 91 1014.0
20260506031552 52 300 15.6 15.6 0.00 0.00 0.00 94 1013.0
20260506024549 52 300 15.6 15.6 0.00 0.00 0.00 95 1014.0
20260506021548 52 300 15.6 15.6 0.00 0.00 0.00 92 1014.0
20260506014546 51 300 15.6 15.6 0.00 0.00 0.00 94 1014.0
20260506011544 52 300 15.6 15.6 0.00 0.00 0.00 97 1014.0
20260506004541 52 300 15.6 15.6 0.00 0.00 0.00 96 1014.0
20260506001539 52 300 15.6 15.6 0.00 0.00 0.00 96 1014.0
20260505234536 52 300 15.6 15.6 0.00 0.00 0.00 96 1014.0
20260505231534 52 300 15.6 15.6 0.00 0.00 0.00 96 1014.0
20260505224533 52 300 15.6 15.6 0.00 0.00 0.00 96 1015.0
20260505221530 52 300 15.6 15.6 0.00 0.00 0.00 95 1014.0
20260505214528 53 300 15.6 15.6 0.00 0.00 0.00 93 1015.0
20260505211526 54 300 15.6 15.6 0.00 0.00 0.00 92 1015.0
20260505204523 54 300 15.6 15.6 0.00 0.00 0.00 84 1015.0
20260505201521 55 300 15.6 15.6 0.00 0.00 0.00 85 1014.0
20260505194519 54 300 15.6 15.6 0.00 0.00 0.00 78 1014.0
20260505191518 55 300 15.6 15.6 0.00 0.00 0.00 73 1014.0
20260505184515 57 300 15.6 15.6 0.00 0.00 0.00 67 1014.0
20260505181512 58 300 15.6 15.6 0.00 0.00 0.00 67 1014.0
20260505174510 56 300 15.6 15.6 0.00 0.00 0.00 70 1014.0
20260505171508 56 300 15.6 15.6 0.00 0.00 0.00 67 1014.0
20260505164506 56 300 15.6 15.6 0.00 0.00 0.00 67 1014.0
20260505161604 57 300 15.6 15.6 0.00 0.00 0.00 71 1014.0